Time,TemperatureF,DewpointF,PressureIn,WindDirection,WindDirectionDegrees,WindSpeedMPH,WindSpeedGustMPH,Humidity,HourlyPrecipIn,Conditions,Clouds,dailyrainin,SolarRadiationWatts/m^2,SoftwareType,DateUTC
2013-03-29 00:00:00,26.1,20.8,30.34,West,265,0.0,0.0,80,0.00,CLR,,0.00,0.0,WeatherDisplay:10.37,2013-03-29 05:00:00,
2013-03-29 00:05:00,26.2,20.9,30.34,West,265,0.0,0.0,80,0.00,CLR,,0.00,0.0,WeatherDisplay:10.37,2013-03-29 05:05:00,
2013-03-29 00:10:00,26.2,20.6,30.34,West,265,0.0,0.0,79,0.00,CLR,,0.00,0.0,WeatherDisplay:10.37,2013-03-29 05:10:00,
2013-03-29 00:15:00,26.2,20.6,30.34,West,265,0.0,0.0,79,0.00,CLR,,0.00,0.0,WeatherDisplay:10.37,2013-03-29 05:15:00,
2013-03-29 00:20:00,26.2,20.6,30.34,West,265,0.0,0.0,79,0.00,CLR,,0.00,0.0,WeatherDisplay:10.37,2013-03-29 05:20:00,
2013-03-29 00:25:00,26.1,20.5,30.34,West,265,0.0,0.0,79,0.00,CLR,,0.00,0.0,WeatherDisplay:10.37,2013-03-29 05:25:00,
2013-03-29 00:30:00,26.0,20.4,30.34,West,265,0.0,0.0,79,0.00,CLR,,0.00,0.0,WeatherDisplay:10.37,2013-03-29 05:30:00,
2013-03-29 00:35:00,25.8,20.5,30.34,West,265,0.0,0.0,80,0.00,CLR,,0.00,0.0,WeatherDisplay:10.37,2013-03-29 05:35:00,
2013-03-29 00:40:00,25.8,20.2,30.34,West,265,0.0,0.0,79,0.00,CLR,,0.00,0.0,WeatherDisplay:10.37,2013-03-29 05:40:00,
2013-03-29 00:45:00,25.8,20.2,30.34,West,265,0.0,0.0,79,0.00,CLR,,0.00,0.0,WeatherDisplay:10.37,2013-03-29 05:45:00,
2013-03-29 00:50:00,25.7,20.4,30.34,West,265,0.0,0.0,80,0.00,CLR,,0.00,0.0,WeatherDisplay:10.37,2013-03-29 05:50:00,
2013-03-29 00:55:00,25.5,20.2,30.34,West,265,0.0,0.0,80,0.00,CLR,,0.00,0.0,WeatherDisplay:10.37,2013-03-29 05:55:00,
2013-03-29 01:01:00,25.5,20.2,30.34,West,265,0.0,0.0,80,0.00,CLR,,0.00,0.0,WeatherDisplay:10.37,2013-03-29 06:01:00,
2013-03-29 01:06:00,25.5,19.9,30.34,West,265,0.0,0.0,79,0.00,CLR,,0.00,0.0,WeatherDisplay:10.37,2013-03-29 06:06:00,
2013-03-29 01:11:00,25.5,20.2,30.34,West,265,0.0,0.0,80,0.00,CLR,,0.00,0.0,WeatherDisplay:10.37,2013-03-29 06:11:00,
2013-03-29 01:16:00,25.4,19.8,30.34,West,265,0.0,0.0,79,0.00,CLR,,0.00,0.0,WeatherDisplay:10.37,2013-03-29 06:16:00,
2013-03-29 01:21:00,25.4,19.8,30.35,West,265,0.0,0.0,79,0.00,CLR,,0.00,0.0,WeatherDisplay:10.37,2013-03-29 06:21:00,
2013-03-29 01:26:00,25.4,19.8,30.35,West,265,0.0,0.0,79,0.00,CLR,,0.00,0.0,WeatherDisplay:10.37,2013-03-29 06:26:00,
2013-03-29 01:31:00,25.4,19.8,30.35,West,265,0.0,0.0,79,0.00,CLR,,0.00,0.0,WeatherDisplay:10.37,2013-03-29 06:31:00,
2013-03-29 01:36:00,25.2,19.6,30.35,West,265,0.0,0.0,79,0.00,CLR,,0.00,0.0,WeatherDisplay:10.37,2013-03-29 06:36:00,
2013-03-29 01:41:00,25.1,19.5,30.35,West,265,0.0,0.0,79,0.00,CLR,,0.00,0.0,WeatherDisplay:10.37,2013-03-29 06:41:00,
2013-03-29 01:46:00,25.0,19.4,30.35,West,265,0.0,0.0,79,0.00,CLR,,0.00,0.0,WeatherDisplay:10.37,2013-03-29 06:46:00,
2013-03-29 01:51:00,24.9,19.3,30.35,West,265,0.0,0.0,79,0.00,CLR,,0.00,0.0,WeatherDisplay:10.37,2013-03-29 06:51:00,
2013-03-29 01:56:00,24.7,19.1,30.35,West,265,0.0,0.0,79,0.00,CLR,,0.00,0.0,WeatherDisplay:10.37,2013-03-29 06:56:00,
2013-03-29 02:01:00,24.4,19.1,30.35,West,265,0.0,0.0,80,0.00,CLR,,0.00,0.0,WeatherDisplay:10.37,2013-03-29 07:01:00,
2013-03-29 02:06:00,24.4,19.1,30.35,West,265,0.0,0.0,80,0.00,CLR,,0.00,0.0,WeatherDisplay:10.37,2013-03-29 07:06:00,
2013-03-29 02:11:00,24.4,18.8,30.35,West,265,0.0,0.0,79,0.00,CLR,,0.00,0.0,WeatherDisplay:10.37,2013-03-29 07:11:00,
2013-03-29 02:16:00,24.3,18.7,30.35,West,265,0.0,0.0,79,0.00,CLR,,0.00,0.0,WeatherDisplay:10.37,2013-03-29 07:16:00,
2013-03-29 02:21:00,24.3,19.0,30.35,West,265,0.0,0.0,80,0.00,CLR,,0.00,0.0,WeatherDisplay:10.37,2013-03-29 07:21:00,
2013-03-29 02:26:00,24.1,18.5,30.35,West,265,0.0,0.0,79,0.00,CLR,,0.00,0.0,WeatherDisplay:10.37,2013-03-29 07:26:00,
2013-03-29 02:31:00,24.1,18.8,30.35,West,265,0.0,0.0,80,0.00,CLR,,0.00,0.0,WeatherDisplay:10.37,2013-03-29 07:31:00,
2013-03-29 02:36:00,24.1,18.8,30.35,West,265,0.0,0.0,80,0.00,CLR,,0.00,0.0,WeatherDisplay:10.37,2013-03-29 07:36:00,
2013-03-29 02:41:00,24.2,18.6,30.35,West,265,0.0,0.0,79,0.00,CLR,,0.00,0.0,WeatherDisplay:10.37,2013-03-29 07:41:00,
2013-03-29 02:46:00,24.0,18.1,30.35,West,265,0.0,0.0,78,0.00,CLR,,0.00,0.0,WeatherDisplay:10.37,2013-03-29 07:46:00,
2013-03-29 02:51:00,23.8,18.2,30.35,West,265,0.0,0.0,79,0.00,CLR,,0.00,0.0,WeatherDisplay:10.37,2013-03-29 07:51:00,
2013-03-29 02:56:00,23.7,18.1,30.35,West,265,0.0,0.0,79,0.00,CLR,,0.00,0.0,WeatherDisplay:10.37,2013-03-29 07:56:00,
2013-03-29 03:01:00,23.6,18.0,30.35,West,265,0.0,0.0,79,0.00,CLR,,0.00,0.0,WeatherDisplay:10.37,2013-03-29 08:01:00,
2013-03-29 03:06:00,23.6,18.0,30.34,West,265,0.0,0.0,79,0.00,CLR,,0.00,0.0,WeatherDisplay:10.37,2013-03-29 08:06:00,
2013-03-29 03:11:00,23.6,18.0,30.35,West,265,0.0,0.0,79,0.00,CLR,,0.00,0.0,WeatherDisplay:10.37,2013-03-29 08:11:00,
2013-03-29 03:16:00,23.4,17.6,30.35,West,265,0.0,0.0,78,0.00,CLR,,0.00,0.0,WeatherDisplay:10.37,2013-03-29 08:16:00,
2013-03-29 03:21:00,23.2,17.7,30.35,West,265,0.0,0.0,79,0.00,CLR,,0.00,0.0,WeatherDisplay:10.37,2013-03-29 08:21:00,
2013-03-29 03:26:00,23.1,17.6,30.34,West,265,0.0,0.0,79,0.00,CLR,,0.00,0.0,WeatherDisplay:10.37,2013-03-29 08:26:00,
2013-03-29 03:31:00,22.9,17.4,30.34,West,265,0.0,0.0,79,0.00,CLR,,0.00,0.0,WeatherDisplay:10.37,2013-03-29 08:31:00,
2013-03-29 03:36:00,22.8,17.6,30.34,West,265,0.0,0.0,80,0.00,CLR,,0.00,0.0,WeatherDisplay:10.37,2013-03-29 08:36:00,
2013-03-29 03:42:00,22.6,17.1,30.35,West,265,0.0,0.0,79,0.00,CLR,,0.00,0.0,WeatherDisplay:10.37,2013-03-29 08:42:00,
2013-03-29 03:47:00,22.2,16.7,30.35,West,265,0.0,0.0,79,0.00,CLR,,0.00,0.0,WeatherDisplay:10.37,2013-03-29 08:47:00,
2013-03-29 03:52:00,21.8,16.6,30.35,West,265,0.0,0.0,80,0.00,CLR,,0.00,0.0,WeatherDisplay:10.37,2013-03-29 08:52:00,
2013-03-29 03:57:00,21.7,16.8,30.34,West,265,0.0,0.0,81,0.00,CLR,,0.00,0.0,WeatherDisplay:10.37,2013-03-29 08:57:00,
2013-03-29 04:02:00,21.7,16.8,30.34,West,265,0.0,0.0,81,0.00,CLR,,0.00,0.0,WeatherDisplay:10.37,2013-03-29 09:02:00,
2013-03-29 04:07:00,21.7,16.8,30.34,West,265,0.0,0.0,81,0.00,CLR,,0.00,0.0,WeatherDisplay:10.37,2013-03-29 09:07:00,
2013-03-29 04:12:00,21.8,16.6,30.34,West,265,0.0,0.0,80,0.00,CLR,,0.00,0.0,WeatherDisplay:10.37,2013-03-29 09:12:00,
2013-03-29 04:17:00,21.6,16.4,30.34,West,265,0.0,0.0,80,0.00,CLR,,0.00,0.0,WeatherDisplay:10.37,2013-03-29 09:17:00,
2013-03-29 04:22:00,21.2,16.3,30.34,West,265,0.0,0.0,81,0.00,CLR,,0.00,0.0,WeatherDisplay:10.37,2013-03-29 09:22:00,
2013-03-29 04:27:00,20.9,16.0,30.34,West,265,0.0,0.0,81,0.00,CLR,,0.00,0.0,WeatherDisplay:10.37,2013-03-29 09:27:00,
2013-03-29 04:32:00,20.8,15.9,30.34,West,265,0.0,0.0,81,0.00,CLR,,0.00,0.0,WeatherDisplay:10.37,2013-03-29 09:32:00,
2013-03-29 04:37:00,20.8,15.9,30.34,West,265,0.0,0.0,81,0.00,CLR,,0.00,0.0,WeatherDisplay:10.37,2013-03-29 09:37:00,
2013-03-29 04:42:00,20.6,15.7,30.34,West,265,0.0,0.0,81,0.00,CLR,,0.00,0.0,WeatherDisplay:10.37,2013-03-29 09:42:00,
2013-03-29 04:47:00,20.3,15.4,30.34,West,265,0.0,0.0,81,0.00,CLR,,0.00,0.0,WeatherDisplay:10.37,2013-03-29 09:47:00,
2013-03-29 04:52:00,20.2,15.6,30.34,West,265,0.0,0.0,82,0.00,CLR,,0.00,0.0,WeatherDisplay:10.37,2013-03-29 09:52:00,
2013-03-29 04:57:00,20.2,15.6,30.34,West,265,0.0,0.0,82,0.00,CLR,,0.00,0.0,WeatherDisplay:10.37,2013-03-29 09:57:00,
2013-03-29 05:02:00,20.0,15.1,30.34,West,265,0.0,0.0,81,0.00,CLR,,0.00,0.0,WeatherDisplay:10.37,2013-03-29 10:02:00,
2013-03-29 05:07:00,19.7,15.1,30.34,West,265,0.0,0.0,82,0.00,CLR,,0.00,0.0,WeatherDisplay:10.37,2013-03-29 10:07:00,
2013-03-29 05:12:00,19.7,15.1,30.35,West,265,0.0,0.0,82,0.00,CLR,,0.00,0.0,WeatherDisplay:10.37,2013-03-29 10:12:00,
2013-03-29 05:17:00,19.7,15.1,30.35,West,265,0.0,0.0,82,0.00,CLR,,0.00,0.0,WeatherDisplay:10.37,2013-03-29 10:17:00,
2013-03-29 05:22:00,19.6,15.0,30.35,West,265,0.0,0.0,82,0.00,CLR,,0.00,0.0,WeatherDisplay:10.37,2013-03-29 10:22:00,
2013-03-29 05:27:00,19.5,14.9,30.35,West,265,0.0,0.0,82,0.00,CLR,,0.00,0.0,WeatherDisplay:10.37,2013-03-29 10:27:00,
2013-03-29 05:32:00,19.2,14.6,30.35,West,265,0.0,0.0,82,0.00,CLR,,0.00,0.0,WeatherDisplay:10.37,2013-03-29 10:32:00,
2013-03-29 05:37:00,19.2,14.9,30.35,West,265,0.0,0.0,83,0.00,CLR,,0.00,0.0,WeatherDisplay:10.37,2013-03-29 10:37:00,
2013-03-29 05:42:00,19.2,14.9,30.35,West,265,0.0,0.0,83,0.00,CLR,,0.00,0.0,WeatherDisplay:10.37,2013-03-29 10:42:00,
2013-03-29 05:48:00,19.3,14.7,30.35,West,265,0.0,0.0,82,0.00,CLR,,0.00,0.0,WeatherDisplay:10.37,2013-03-29 10:48:00,
2013-03-29 05:53:00,19.4,14.8,30.35,West,265,0.0,0.0,82,0.00,CLR,,0.00,0.0,WeatherDisplay:10.37,2013-03-29 10:53:00,
2013-03-29 05:58:00,19.4,14.8,30.35,West,265,0.0,0.0,82,0.00,CLR,,0.00,0.0,WeatherDisplay:10.37,2013-03-29 10:58:00,
2013-03-29 06:03:00,19.5,14.9,30.35,West,265,0.0,0.0,82,0.00,CLR,,0.00,0.0,WeatherDisplay:10.37,2013-03-29 11:03:00,
2013-03-29 06:08:00,19.4,14.8,30.35,West,265,0.0,0.0,82,0.00,CLR,,0.00,0.0,WeatherDisplay:10.37,2013-03-29 11:08:00,
2013-03-29 06:13:00,19.3,14.7,30.35,West,265,0.0,0.0,82,0.00,CLR,,0.00,0.0,WeatherDisplay:10.37,2013-03-29 11:13:00,
2013-03-29 06:18:00,19.0,14.1,30.35,West,265,0.0,0.0,81,0.00,CLR,,0.00,0.0,WeatherDisplay:10.37,2013-03-29 11:18:00,
2013-03-29 06:23:00,18.6,14.0,30.35,West,265,0.0,0.0,82,0.00,CLR,,0.00,0.0,WeatherDisplay:10.37,2013-03-29 11:23:00,
2013-03-29 06:28:00,18.3,13.7,30.35,West,265,0.0,0.0,82,0.00,CLR,,0.00,0.0,WeatherDisplay:10.37,2013-03-29 11:28:00,
2013-03-29 06:33:00,18.1,13.8,30.35,West,265,0.0,0.0,83,0.00,CLR,,0.00,0.0,WeatherDisplay:10.37,2013-03-29 11:33:00,
2013-03-29 06:38:00,18.1,13.8,30.35,West,265,0.0,0.0,83,0.00,CLR,,0.00,0.0,WeatherDisplay:10.37,2013-03-29 11:38:00,
2013-03-29 06:43:00,18.1,13.8,30.36,West,265,0.0,0.0,83,0.00,CLR,,0.00,0.0,WeatherDisplay:10.37,2013-03-29 11:43:00,
2013-03-29 06:48:00,18.0,13.7,30.35,West,265,0.0,0.0,83,0.00,CLR,,0.00,0.0,WeatherDisplay:10.37,2013-03-29 11:48:00,
2013-03-29 06:53:00,18.1,13.8,30.35,West,265,0.0,0.0,83,0.00,CLR,,0.00,0.0,WeatherDisplay:10.37,2013-03-29 11:53:00,
2013-03-29 06:58:00,18.0,13.7,30.35,West,265,0.0,0.0,83,0.00,CLR,,0.00,0.0,WeatherDisplay:10.37,2013-03-29 11:58:00,
2013-03-29 07:03:00,17.9,13.6,30.36,West,265,0.0,0.0,83,0.00,CLR,,0.00,5.0,WeatherDisplay:10.37,2013-03-29 12:03:00,
2013-03-29 07:08:00,17.7,13.4,30.36,West,265,0.0,0.0,83,0.00,CLR,,0.00,9.0,WeatherDisplay:10.37,2013-03-29 12:08:00,
2013-03-29 07:13:00,17.5,13.2,30.36,West,265,0.0,0.0,83,0.00,CLR,,0.00,11.0,WeatherDisplay:10.37,2013-03-29 12:13:00,
2013-03-29 07:18:00,17.3,13.0,30.36,West,265,0.0,0.0,83,0.00,CLR,,0.00,12.0,WeatherDisplay:10.37,2013-03-29 12:18:00,
2013-03-29 07:23:00,17.3,13.3,30.36,West,265,0.0,0.0,84,0.00,CLR,,0.00,14.0,WeatherDisplay:10.37,2013-03-29 12:23:00,
2013-03-29 07:28:00,17.3,13.3,30.36,West,265,0.0,0.0,84,0.00,CLR,,0.00,16.0,WeatherDisplay:10.37,2013-03-29 12:28:00,
2013-03-29 07:33:00,17.3,13.6,30.36,West,265,0.0,0.0,85,0.00,CLR,,0.00,18.0,WeatherDisplay:10.37,2013-03-29 12:33:00,
2013-03-29 07:38:00,17.4,13.7,30.36,West,265,0.0,0.0,85,0.00,CLR,,0.00,19.0,WeatherDisplay:10.37,2013-03-29 12:38:00,
2013-03-29 07:43:00,17.5,13.8,30.36,West,265,0.0,0.0,85,0.00,CLR,,0.00,21.0,WeatherDisplay:10.37,2013-03-29 12:43:00,
2013-03-29 07:48:00,17.6,13.9,30.36,West,265,0.0,0.0,85,0.00,CLR,,0.00,23.0,WeatherDisplay:10.37,2013-03-29 12:48:00,
2013-03-29 07:53:00,17.8,14.3,30.36,West,265,0.0,0.0,86,0.00,CLR,,0.00,56.0,WeatherDisplay:10.37,2013-03-29 12:53:00,
2013-03-29 07:58:00,18.1,14.6,30.36,West,265,0.0,0.0,86,0.00,CLR,,0.00,26.0,WeatherDisplay:10.37,2013-03-29 12:58:00,
2013-03-29 08:03:00,18.5,15.0,30.36,West,265,0.0,0.0,86,0.00,FEW,,0.00,39.0,WeatherDisplay:10.37,2013-03-29 13:03:00,
2013-03-29 08:08:00,19.0,15.5,30.36,West,265,0.0,0.0,86,0.00,FEW,,0.00,30.0,WeatherDisplay:10.37,2013-03-29 13:08:00,
2013-03-29 08:13:00,19.4,15.9,30.36,West,265,0.0,0.0,86,0.00,FEW,,0.00,32.0,WeatherDisplay:10.37,2013-03-29 13:13:00,
2013-03-29 08:18:00,20.0,16.5,30.36,West,265,0.0,0.0,86,0.00,CLR,,0.00,44.0,WeatherDisplay:10.37,2013-03-29 13:18:00,
2013-03-29 08:23:00,20.7,17.2,30.36,West,265,0.0,0.0,86,0.00,CLR,,0.00,35.0,WeatherDisplay:10.37,2013-03-29 13:23:00,
2013-03-29 08:28:00,21.4,17.9,30.36,West,265,0.0,0.0,86,0.00,CLR,,0.00,47.0,WeatherDisplay:10.37,2013-03-29 13:28:00,
2013-03-29 08:33:00,22.0,18.2,30.35,West,265,0.0,0.0,85,0.00,FEW,,0.00,65.0,WeatherDisplay:10.37,2013-03-29 13:33:00,
2013-03-29 08:38:00,22.6,18.8,30.35,West,265,0.0,0.0,85,0.00,FEW,,0.00,58.0,WeatherDisplay:10.37,2013-03-29 13:38:00,
2013-03-29 08:43:00,23.5,19.4,30.35,West,265,0.0,0.0,84,0.00,FEW,,0.00,90.0,WeatherDisplay:10.37,2013-03-29 13:43:00,
2013-03-29 08:48:00,24.3,19.9,30.35,West,265,0.0,0.0,83,0.00,FEW,,0.00,118.0,WeatherDisplay:10.37,2013-03-29 13:48:00,
2013-03-29 08:53:00,25.1,20.4,30.35,West,265,0.0,0.0,82,0.00,FEW,,0.00,51.0,WeatherDisplay:10.37,2013-03-29 13:53:00,
2013-03-29 08:58:00,25.9,20.6,30.35,West,265,0.0,0.0,80,0.00,FEW,,0.00,44.0,WeatherDisplay:10.37,2013-03-29 13:58:00,
2013-03-29 09:03:00,26.6,21.0,30.35,West,265,0.0,0.0,79,0.00,FEW,,0.00,46.0,WeatherDisplay:10.37,2013-03-29 14:03:00,
2013-03-29 09:08:00,27.3,21.0,30.35,West,265,0.0,0.0,77,0.00,FEW,,0.00,47.0,WeatherDisplay:10.37,2013-03-29 14:08:00,
2013-03-29 09:13:00,28.1,21.5,30.34,West,265,0.0,0.0,76,0.00,FEW,,0.00,49.0,WeatherDisplay:10.37,2013-03-29 14:13:00,
2013-03-29 09:18:00,29.0,22.4,30.34,West,265,0.0,0.0,76,0.00,FEW,,0.00,53.0,WeatherDisplay:10.37,2013-03-29 14:18:00,
2013-03-29 09:24:00,30.0,23.0,30.34,West,265,0.0,0.0,75,0.00,FEW,,0.00,53.0,WeatherDisplay:10.37,2013-03-29 14:24:00,
2013-03-29 09:29:00,30.9,23.6,30.34,West,265,0.0,0.0,74,0.00,FEW,,0.00,54.0,WeatherDisplay:10.37,2013-03-29 14:29:00,
2013-03-29 09:34:00,31.9,23.6,30.34,West,265,0.0,0.1,71,0.00,BKN,,0.00,54.0,WeatherDisplay:10.37,2013-03-29 14:34:00,
2013-03-29 09:39:00,33.2,23.1,30.34,SW,214,1.0,1.0,66,0.00,BKN,,0.00,56.0,WeatherDisplay:10.37,2013-03-29 14:39:00,
2013-03-29 09:44:00,34.5,22.4,30.34,SSE,163,3.5,3.5,61,0.00,BKN,,0.00,65.0,WeatherDisplay:10.37,2013-03-29 14:44:00,
2013-03-29 09:49:00,35.6,23.9,30.34,SSE,163,0.0,0.0,62,0.00,BKN,,0.00,95.0,WeatherDisplay:10.37,2013-03-29 14:49:00,
2013-03-29 09:54:00,36.5,22.7,30.33,South,171,1.1,1.1,57,0.00,BKN,,0.00,76.0,WeatherDisplay:10.37,2013-03-29 14:54:00,
2013-03-29 09:59:00,37.4,23.5,30.33,SW,236,2.0,2.0,57,0.00,BKN,,0.00,77.0,WeatherDisplay:10.37,2013-03-29 14:59:00,
2013-03-29 10:04:00,38.1,22.9,30.34,South,186,0.0,0.1,54,0.00,CLR,,0.00,67.0,WeatherDisplay:10.37,2013-03-29 15:04:00,
2013-03-29 10:09:00,38.9,22.3,30.34,SSW,192,3.5,3.5,51,0.00,CLR,,0.00,63.0,WeatherDisplay:10.37,2013-03-29 15:09:00,
2013-03-29 10:14:00,39.4,22.3,30.34,WSW,251,2.3,2.3,50,0.00,CLR,,0.00,63.0,WeatherDisplay:10.37,2013-03-29 15:14:00,
2013-03-29 10:19:00,39.7,22.6,30.33,SW,217,3.5,3.5,50,0.00,CLR,,0.00,65.0,WeatherDisplay:10.37,2013-03-29 15:19:00,
2013-03-29 10:24:00,40.1,22.9,30.33,SSW,207,5.8,5.8,50,0.00,CLR,,0.00,70.0,WeatherDisplay:10.37,2013-03-29 15:24:00,
2013-03-29 10:29:00,40.4,22.7,30.33,SE,145,5.0,5.0,49,0.00,CLR,,0.00,70.0,WeatherDisplay:10.37,2013-03-29 15:29:00,
2013-03-29 10:34:00,40.8,22.1,30.33,South,186,3.5,3.5,47,0.00,CLR,,0.00,77.0,WeatherDisplay:10.37,2013-03-29 15:34:00,
2013-03-29 10:39:00,41.1,21.3,30.33,SE,126,4.6,4.6,45,0.00,CLR,,0.00,79.0,WeatherDisplay:10.37,2013-03-29 15:39:00,
2013-03-29 10:44:00,41.7,21.4,30.33,SE,125,4.0,4.0,44,0.00,CLR,,0.00,163.0,WeatherDisplay:10.37,2013-03-29 15:44:00,
2013-03-29 10:49:00,42.4,20.9,30.33,ESE,114,3.5,3.5,42,0.00,CLR,,0.00,104.0,WeatherDisplay:10.37,2013-03-29 15:49:00,
2013-03-29 10:54:00,42.8,21.3,30.33,West,279,6.0,6.0,42,0.00,CLR,,0.00,155.0,WeatherDisplay:10.37,2013-03-29 15:54:00,
2013-03-29 10:59:00,43.2,21.6,30.33,SE,138,3.5,3.5,42,0.00,CLR,,0.00,144.0,WeatherDisplay:10.37,2013-03-29 15:59:00,
2013-03-29 11:04:00,43.4,20.1,30.33,SW,234,3.5,3.5,39,0.00,OVC,,0.00,130.0,WeatherDisplay:10.37,2013-03-29 16:04:00,
2013-03-29 11:09:00,43.8,21.0,30.33,West,269,3.5,3.5,40,0.00,OVC,,0.00,104.0,WeatherDisplay:10.37,2013-03-29 16:09:00,
2013-03-29 11:14:00,44.0,20.6,30.33,SW,228,3.5,3.5,39,0.00,OVC,,0.00,109.0,WeatherDisplay:10.37,2013-03-29 16:14:00,
2013-03-29 11:19:00,44.3,20.3,30.33,SW,236,5.8,5.8,38,0.00,OVC,,0.00,104.0,WeatherDisplay:10.37,2013-03-29 16:19:00,
2013-03-29 11:24:00,44.5,20.4,30.33,WSW,248,3.5,3.5,38,0.00,OVC,,0.00,121.0,WeatherDisplay:10.37,2013-03-29 16:24:00,
2013-03-29 11:29:00,44.9,20.2,30.32,SSE,157,4.6,4.6,37,0.00,OVC,,0.00,306.0,WeatherDisplay:10.37,2013-03-29 16:29:00,
2013-03-29 11:34:00,45.2,21.7,30.32,WSW,250,4.0,4.0,39,0.00,OVC,,0.00,705.0,WeatherDisplay:10.37,2013-03-29 16:34:00,
2013-03-29 11:39:00,45.6,20.8,30.32,SE,130,4.0,4.0,37,0.00,OVC,,0.00,649.0,WeatherDisplay:10.37,2013-03-29 16:39:00,
2013-03-29 11:44:00,46.3,22.0,30.32,SSE,155,3.5,3.5,38,0.00,OVC,,0.00,645.0,WeatherDisplay:10.37,2013-03-29 16:44:00,
2013-03-29 11:49:00,46.7,21.1,30.32,SW,221,3.5,3.5,36,0.00,OVC,,0.00,338.0,WeatherDisplay:10.37,2013-03-29 16:49:00,
2013-03-29 11:54:00,46.9,21.3,30.32,WSW,251,3.5,3.5,36,0.00,OVC,,0.00,464.0,WeatherDisplay:10.37,2013-03-29 16:54:00,
2013-03-29 11:59:00,47.3,20.3,30.32,WSW,256,4.6,4.6,34,0.00,OVC,,0.00,677.0,WeatherDisplay:10.37,2013-03-29 16:59:00,
2013-03-29 12:04:00,47.4,21.1,30.32,SE,133,3.5,3.5,35,0.00,OVC,,0.00,497.0,WeatherDisplay:10.37,2013-03-29 17:04:00,
2013-03-29 12:09:00,47.6,19.9,30.31,SW,222,8.1,8.1,33,0.00,OVC,,0.00,527.0,WeatherDisplay:10.37,2013-03-29 17:09:00,
2013-03-29 12:14:00,47.3,20.3,30.31,WSW,244,2.3,2.3,34,0.00,OVC,,0.00,429.0,WeatherDisplay:10.37,2013-03-29 17:14:00,
2013-03-29 12:19:00,47.3,20.3,30.31,SSW,207,3.5,3.5,34,0.00,OVC,,0.00,749.0,WeatherDisplay:10.37,2013-03-29 17:19:00,
2013-03-29 12:24:00,47.4,19.7,30.31,SW,225,3.5,3.5,33,0.00,OVC,,0.00,387.0,WeatherDisplay:10.37,2013-03-29 17:24:00,
2013-03-29 12:29:00,47.6,19.9,30.30,SW,229,4.6,4.6,33,0.00,OVC,,0.00,489.0,WeatherDisplay:10.37,2013-03-29 17:29:00,
2013-03-29 12:34:00,47.8,22.1,30.30,SSW,194,5.8,5.8,36,0.00,OVC,,0.00,891.0,WeatherDisplay:10.37,2013-03-29 17:34:00,
2013-03-29 12:39:00,48.0,20.9,30.30,SSW,206,2.3,2.3,34,0.00,OVC,,0.00,754.0,WeatherDisplay:10.37,2013-03-29 17:39:00,
2013-03-29 12:44:00,48.5,20.7,30.30,SW,223,6.9,6.9,33,0.00,OVC,,0.00,803.0,WeatherDisplay:10.37,2013-03-29 17:44:00,
2013-03-29 12:49:00,48.6,20.8,30.30,South,178,3.0,3.0,33,0.00,OVC,,0.00,803.0,WeatherDisplay:10.37,2013-03-29 17:49:00,
2013-03-29 12:54:00,48.6,20.8,30.30,SE,139,3.5,3.5,33,0.00,OVC,,0.00,390.0,WeatherDisplay:10.37,2013-03-29 17:54:00,
2013-03-29 12:59:00,48.7,21.5,30.30,SW,215,3.0,3.0,34,0.00,OVC,,0.00,413.0,WeatherDisplay:10.37,2013-03-29 17:59:00,
2013-03-29 13:04:00,49.0,20.4,30.30,SSW,208,3.5,3.5,32,0.00,OVC,,0.00,700.0,WeatherDisplay:10.37,2013-03-29 18:04:00,
2013-03-29 13:10:00,49.1,21.2,30.30,SSW,210,5.8,5.8,33,0.00,OVC,,0.00,612.0,WeatherDisplay:10.37,2013-03-29 18:10:00,
2013-03-29 13:14:00,48.8,21.6,30.30,South,170,4.6,4.6,34,0.00,OVC,,0.00,396.0,WeatherDisplay:10.37,2013-03-29 18:14:00,
2013-03-29 13:20:00,48.6,23.5,30.29,East,94,1.0,0.0,37,0.00,OVC,,0.00,522.0,WeatherDisplay:10.37,2013-03-29 18:20:00,
2013-03-29 13:25:00,48.5,23.4,30.29,SE,128,5.8,5.8,37,0.00,OVC,,0.00,821.0,WeatherDisplay:10.37,2013-03-29 18:25:00,
2013-03-29 13:30:00,48.3,21.2,30.29,SSW,192,3.5,3.5,34,0.00,OVC,,0.00,325.0,WeatherDisplay:10.37,2013-03-29 18:30:00,
2013-03-29 13:35:00,48.5,21.4,30.29,South,173,4.0,4.0,34,0.00,OVC,,0.00,336.0,WeatherDisplay:10.37,2013-03-29 18:35:00,
2013-03-29 13:40:00,48.8,21.6,30.29,WSW,249,2.3,2.3,34,0.00,OVC,,0.00,338.0,WeatherDisplay:10.37,2013-03-29 18:40:00,
2013-03-29 13:45:00,48.5,20.7,30.29,SW,223,9.2,9.2,33,0.00,OVC,,0.00,392.0,WeatherDisplay:10.37,2013-03-29 18:45:00,
2013-03-29 13:50:00,48.5,21.4,30.29,SSE,149,3.0,3.0,34,0.00,OVC,,0.00,374.0,WeatherDisplay:10.37,2013-03-29 18:50:00,
2013-03-29 13:55:00,48.5,21.4,30.28,SSW,211,3.5,3.5,34,0.00,OVC,,0.00,385.0,WeatherDisplay:10.37,2013-03-29 18:55:00,
2013-03-29 14:00:00,48.2,20.4,30.28,SW,224,6.9,6.9,33,0.00,OVC,,0.00,438.0,WeatherDisplay:10.37,2013-03-29 19:00:00,
2013-03-29 14:05:00,48.3,21.2,30.28,SSW,193,3.5,3.5,34,0.00,BKN,,0.00,399.0,WeatherDisplay:10.37,2013-03-29 19:05:00,
2013-03-29 14:10:00,48.6,20.8,30.28,WNW,295,4.0,4.0,33,0.00,BKN,,0.00,345.0,WeatherDisplay:10.37,2013-03-29 19:10:00,
2013-03-29 14:15:00,48.1,20.3,30.28,SE,146,10.4,10.4,33,0.00,BKN,,0.00,392.0,WeatherDisplay:10.37,2013-03-29 19:15:00,
2013-03-29 14:20:00,48.2,21.1,30.28,SE,131,3.5,3.5,34,0.00,BKN,,0.00,406.0,WeatherDisplay:10.37,2013-03-29 19:20:00,
2013-03-29 14:25:00,48.3,21.2,30.28,SE,146,2.3,2.3,34,0.00,BKN,,0.00,406.0,WeatherDisplay:10.37,2013-03-29 19:25:00,
2013-03-29 14:30:00,48.5,21.4,30.28,SSW,203,6.9,6.9,34,0.00,BKN,,0.00,415.0,WeatherDisplay:10.37,2013-03-29 19:30:00,
2013-03-29 14:35:00,48.6,20.0,30.27,SSE,152,3.5,3.5,32,0.00,BKN,,0.00,302.0,WeatherDisplay:10.37,2013-03-29 19:35:00,
2013-03-29 14:40:00,48.8,22.3,30.27,SSW,202,2.3,2.3,35,0.00,BKN,,0.00,404.0,WeatherDisplay:10.37,2013-03-29 19:40:00,
2013-03-29 14:45:00,49.1,20.5,30.27,South,185,2.3,2.3,32,0.00,BKN,,0.00,225.0,WeatherDisplay:10.37,2013-03-29 19:45:00,
2013-03-29 14:50:00,48.5,19.9,30.27,WSW,250,3.5,3.5,32,0.00,BKN,,0.00,179.0,WeatherDisplay:10.37,2013-03-29 19:50:00,
2013-03-29 14:55:00,48.4,23.3,30.26,WNW,296,1.1,1.3,37,0.00,BKN,,0.00,239.0,WeatherDisplay:10.37,2013-03-29 19:55:00,
2013-03-29 15:00:00,48.9,22.4,30.26,SE,142,4.6,4.6,35,0.00,BKN,,0.00,796.0,WeatherDisplay:10.37,2013-03-29 20:00:00,
2013-03-29 15:05:00,49.7,23.8,30.26,SSE,159,3.5,3.5,36,0.00,BKN,,0.00,724.0,WeatherDisplay:10.37,2013-03-29 20:05:00,
2013-03-29 15:10:00,50.5,23.1,30.26,SE,136,3.5,3.5,34,0.00,BKN,,0.00,700.0,WeatherDisplay:10.37,2013-03-29 20:10:00,
2013-03-29 15:15:00,51.0,23.6,30.26,WSW,249,3.5,3.5,34,0.00,BKN,,0.00,698.0,WeatherDisplay:10.37,2013-03-29 20:15:00,
2013-03-29 15:20:00,51.2,23.0,30.25,SE,136,3.5,3.5,33,0.00,SCT,,0.00,332.0,WeatherDisplay:10.37,2013-03-29 20:20:00,
2013-03-29 15:25:00,51.2,23.0,30.25,SW,217,3.5,3.5,33,0.00,SCT,,0.00,701.0,WeatherDisplay:10.37,2013-03-29 20:25:00,
2013-03-29 15:30:00,51.1,23.0,30.25,SSE,153,6.9,6.9,33,0.00,SCT,,0.00,712.0,WeatherDisplay:10.37,2013-03-29 20:30:00,
2013-03-29 15:35:00,51.0,22.1,30.25,South,171,9.2,9.2,32,0.00,SCT,,0.00,670.0,WeatherDisplay:10.37,2013-03-29 20:35:00,
2013-03-29 15:40:00,51.3,22.4,30.25,South,186,5.8,5.8,32,0.00,SCT,,0.00,701.0,WeatherDisplay:10.37,2013-03-29 20:40:00,
2013-03-29 15:45:00,51.2,22.3,30.24,SW,215,2.3,2.3,32,0.00,SCT,,0.00,642.0,WeatherDisplay:10.37,2013-03-29 20:45:00,
2013-03-29 15:50:00,51.3,23.8,30.24,SE,144,5.8,5.8,34,0.00,SCT,,0.00,415.0,WeatherDisplay:10.37,2013-03-29 20:50:00,
2013-03-29 15:55:00,51.3,22.4,30.24,WSW,255,3.5,3.5,32,0.00,SCT,,0.00,631.0,WeatherDisplay:10.37,2013-03-29 20:55:00,
2013-03-29 16:00:00,51.4,22.5,30.24,SE,132,4.6,4.6,32,0.00,SCT,,0.00,624.0,WeatherDisplay:10.37,2013-03-29 21:00:00,
2013-03-29 16:05:00,50.9,22.8,30.24,SW,227,3.5,3.5,33,0.00,SCT,,0.00,490.0,WeatherDisplay:10.37,2013-03-29 21:05:00,
2013-03-29 16:10:00,50.5,22.4,30.24,WNW,288,5.8,5.8,33,0.00,SCT,,0.00,174.0,WeatherDisplay:10.37,2013-03-29 21:10:00,
2013-03-29 16:15:00,49.8,22.5,30.24,WSW,246,3.5,3.5,34,0.00,SCT,,0.00,200.0,WeatherDisplay:10.37,2013-03-29 21:15:00,
2013-03-29 16:20:00,49.3,22.1,30.24,SE,139,4.6,4.6,34,0.00,SCT,,0.00,234.0,WeatherDisplay:10.37,2013-03-29 21:20:00,
2013-03-29 16:25:00,49.5,22.9,30.23,South,174,5.8,5.8,35,0.00,SCT,,0.00,540.0,WeatherDisplay:10.37,2013-03-29 21:25:00,
2013-03-29 16:30:00,49.8,22.5,30.23,West,260,3.0,3.0,34,0.00,SCT,,0.00,566.0,WeatherDisplay:10.37,2013-03-29 21:30:00,
2013-03-29 16:35:00,50.5,23.8,30.23,SW,236,3.5,3.5,35,0.00,BKN,,0.00,561.0,WeatherDisplay:10.37,2013-03-29 21:35:00,
2013-03-29 16:40:00,51.2,23.8,30.23,WSW,247,4.0,4.0,34,0.00,BKN,,0.00,563.0,WeatherDisplay:10.37,2013-03-29 21:40:00,
2013-03-29 16:45:00,51.0,24.3,30.23,WSW,246,4.0,4.0,35,0.00,BKN,,0.00,322.0,WeatherDisplay:10.37,2013-03-29 21:45:00,
2013-03-29 16:50:00,50.9,23.5,30.23,SSE,150,4.6,4.6,34,0.00,BKN,,0.00,454.0,WeatherDisplay:10.37,2013-03-29 21:50:00,
2013-03-29 16:55:00,50.8,23.4,30.22,SSW,192,4.6,4.6,34,0.00,BKN,,0.00,387.0,WeatherDisplay:10.37,2013-03-29 21:55:00,
2013-03-29 17:00:00,50.6,23.9,30.22,WSW,246,3.5,3.5,35,0.00,BKN,,0.00,404.0,WeatherDisplay:10.37,2013-03-29 22:00:00,
2013-03-29 17:05:00,50.4,24.4,30.22,ESE,107,3.5,3.5,36,0.00,BKN,,0.00,311.0,WeatherDisplay:10.37,2013-03-29 22:05:00,
2013-03-29 17:10:00,50.1,24.2,30.22,SSE,158,2.3,2.3,36,0.00,BKN,,0.00,318.0,WeatherDisplay:10.37,2013-03-29 22:10:00,
2013-03-29 17:15:00,50.1,24.8,30.22,SE,129,3.5,3.5,37,0.00,BKN,,0.00,315.0,WeatherDisplay:10.37,2013-03-29 22:15:00,
2013-03-29 17:20:00,50.4,25.1,30.22,SE,141,3.5,3.5,37,0.00,BKN,,0.00,306.0,WeatherDisplay:10.37,2013-03-29 22:20:00,
2013-03-29 17:25:00,50.5,25.2,30.22,WNW,285,4.0,4.0,37,0.00,BKN,,0.00,343.0,WeatherDisplay:10.37,2013-03-29 22:25:00,
2013-03-29 17:30:00,50.2,24.9,30.22,SW,217,3.5,3.5,37,0.00,BKN,,0.00,290.0,WeatherDisplay:10.37,2013-03-29 22:30:00,
2013-03-29 17:35:00,50.0,26.0,30.22,WSW,242,3.5,3.5,39,0.00,BKN,,0.00,214.0,WeatherDisplay:10.37,2013-03-29 22:35:00,
2013-03-29 17:40:00,49.5,25.5,30.22,WSW,257,6.9,6.9,39,0.00,BKN,,0.00,206.0,WeatherDisplay:10.37,2013-03-29 22:40:00,
2013-03-29 17:46:00,48.8,24.9,30.22,SW,229,4.6,4.6,39,0.00,BKN,,0.00,199.0,WeatherDisplay:10.37,2013-03-29 22:46:00,
2013-03-29 17:51:00,48.6,25.3,30.22,SW,221,2.3,2.3,40,0.00,BKN,,0.00,128.0,WeatherDisplay:10.37,2013-03-29 22:51:00,
2013-03-29 17:56:00,48.5,25.8,30.22,SW,226,3.5,3.5,41,0.00,BKN,,0.00,135.0,WeatherDisplay:10.37,2013-03-29 22:56:00,
2013-03-29 18:01:00,48.3,26.2,30.22,SSE,147,3.5,3.5,42,0.00,BKN,,0.00,107.0,WeatherDisplay:10.37,2013-03-29 23:01:00,
2013-03-29 18:06:00,48.1,27.2,30.22,SSE,150,1.1,1.1,44,0.00,FEW,,0.00,83.0,WeatherDisplay:10.37,2013-03-29 23:06:00,
2013-03-29 18:11:00,47.4,27.1,30.22,SW,221,3.5,3.5,45,0.00,FEW,,0.00,44.0,WeatherDisplay:10.37,2013-03-29 23:11:00,
2013-03-29 18:16:00,47.0,27.8,30.22,WSW,240,1.1,1.1,47,0.00,FEW,,0.00,44.0,WeatherDisplay:10.37,2013-03-29 23:16:00,
2013-03-29 18:21:00,46.5,27.3,30.22,SW,231,3.5,3.5,47,0.00,FEW,,0.00,35.0,WeatherDisplay:10.37,2013-03-29 23:21:00,
2013-03-29 18:26:00,46.3,28.2,30.22,SSE,165,1.1,1.1,49,0.00,FEW,,0.00,26.0,WeatherDisplay:10.37,2013-03-29 23:26:00,
2013-03-29 18:31:00,45.8,27.7,30.22,SSW,202,3.5,3.5,49,0.00,FEW,,0.00,28.0,WeatherDisplay:10.37,2013-03-29 23:31:00,
2013-03-29 18:36:00,45.5,28.4,30.22,SW,229,4.6,4.6,51,0.00,FEW,,0.00,39.0,WeatherDisplay:10.37,2013-03-29 23:36:00,
2013-03-29 18:41:00,45.2,28.1,30.21,SE,145,4.6,4.6,51,0.00,FEW,,0.00,47.0,WeatherDisplay:10.37,2013-03-29 23:41:00,
2013-03-29 18:46:00,44.9,27.8,30.21,SSE,159,3.5,3.5,51,0.00,FEW,,0.00,40.0,WeatherDisplay:10.37,2013-03-29 23:46:00,
2013-03-29 18:51:00,44.6,27.1,30.21,SW,221,4.6,4.6,50,0.00,FEW,,0.00,23.0,WeatherDisplay:10.37,2013-03-29 23:51:00,
2013-03-29 18:56:00,44.4,26.9,30.21,SW,221,1.1,0.0,50,0.00,FEW,,0.00,18.0,WeatherDisplay:10.37,2013-03-29 23:56:00,
2013-03-29 19:01:00,44.2,27.7,30.21,WSW,250,0.0,0.0,52,0.00,FEW,,0.00,16.0,WeatherDisplay:10.37,2013-03-30 00:01:00,
2013-03-29 19:06:00,43.7,27.7,30.21,SW,214,2.3,2.3,53,0.00,SCT,,0.00,11.0,WeatherDisplay:10.37,2013-03-30 00:06:00,
2013-03-29 19:11:00,43.2,27.2,30.21,SW,234,3.5,3.5,53,0.00,SCT,,0.00,9.0,WeatherDisplay:10.37,2013-03-30 00:11:00,
2013-03-29 19:16:00,42.9,27.8,30.21,SW,234,0.0,0.0,55,0.00,FEW,,0.00,5.0,WeatherDisplay:10.37,2013-03-30 00:16:00,
2013-03-29 19:22:00,42.6,28.4,30.20,South,190,0.0,0.0,57,0.00,FEW,,0.00,0.0,WeatherDisplay:10.37,2013-03-30 00:22:00,
2013-03-29 19:27:00,42.2,27.6,30.20,South,186,1.1,0.0,56,0.00,FEW,,0.00,0.0,WeatherDisplay:10.37,2013-03-30 00:27:00,
2013-03-29 19:32:00,41.6,27.1,30.20,South,186,1.1,0.0,56,0.00,SCT,,0.00,0.0,WeatherDisplay:10.37,2013-03-30 00:32:00,
2013-03-29 19:37:00,41.1,27.9,30.20,South,190,1.1,0.0,59,0.00,SCT,,0.00,0.0,WeatherDisplay:10.37,2013-03-30 00:37:00,
2013-03-29 19:42:00,40.5,27.7,30.20,SSW,195,0.0,0.0,60,0.00,SCT,,0.00,0.0,WeatherDisplay:10.37,2013-03-30 00:42:00,
2013-03-29 19:47:00,40.0,27.6,30.20,SSW,195,0.0,0.0,61,0.00,SCT,,0.00,0.0,WeatherDisplay:10.37,2013-03-30 00:47:00,
2013-03-29 19:53:00,39.4,27.5,30.20,SSW,195,0.0,0.0,62,0.00,SCT,,0.00,0.0,WeatherDisplay:10.37,2013-03-30 00:53:00,
2013-03-29 19:58:00,39.0,27.5,30.20,SSW,195,0.0,0.0,63,0.00,SCT,,0.00,0.0,WeatherDisplay:10.37,2013-03-30 00:58:00,
2013-03-29 20:03:00,38.7,27.6,30.20,SSW,196,1.1,0.0,64,0.00,SCT,,0.00,0.0,WeatherDisplay:10.37,2013-03-30 01:03:00,
2013-03-29 20:08:00,38.4,27.7,30.20,South,174,0.0,0.0,65,0.00,SCT,,0.00,0.0,WeatherDisplay:10.37,2013-03-30 01:08:00,
2013-03-29 20:13:00,38.3,27.2,30.20,South,174,0.0,0.0,64,0.00,SCT,,0.00,0.0,WeatherDisplay:10.37,2013-03-30 01:13:00,
2013-03-29 20:18:00,38.0,26.9,30.20,South,174,1.1,0.0,64,0.00,OVC,,0.00,0.0,WeatherDisplay:10.37,2013-03-30 01:18:00,
2013-03-29 20:23:00,37.8,27.1,30.20,South,174,0.0,0.0,65,0.00,OVC,,0.00,0.0,WeatherDisplay:10.37,2013-03-30 01:23:00,
2013-03-29 20:28:00,37.6,27.3,30.20,South,174,0.0,0.0,66,0.00,OVC,,0.00,0.0,WeatherDisplay:10.37,2013-03-30 01:28:00,
2013-03-29 20:33:00,37.3,27.3,30.20,South,174,0.0,0.0,67,0.00,OVC,,0.00,0.0,WeatherDisplay:10.37,2013-03-30 01:33:00,
2013-03-29 20:38:00,37.0,28.1,30.20,South,174,0.0,0.0,70,0.00,OVC,,0.00,0.0,WeatherDisplay:10.37,2013-03-30 01:38:00,
2013-03-29 20:43:00,36.7,27.5,30.20,South,174,0.0,0.0,69,0.00,OVC,,0.00,0.0,WeatherDisplay:10.37,2013-03-30 01:43:00,
2013-03-29 20:48:00,36.5,27.6,30.20,South,174,0.0,0.0,70,0.00,OVC,,0.00,0.0,WeatherDisplay:10.37,2013-03-30 01:48:00,
2013-03-29 20:53:00,36.2,27.0,30.20,South,174,0.0,0.0,69,0.00,OVC,,0.00,0.0,WeatherDisplay:10.37,2013-03-30 01:53:00,
2013-03-29 20:58:00,36.0,26.5,30.20,South,174,1.1,0.0,68,0.00,OVC,,0.00,0.0,WeatherDisplay:10.37,2013-03-30 01:58:00,
2013-03-29 21:03:00,35.8,26.6,30.19,South,174,0.0,0.0,69,0.00,FEW,,0.00,0.0,WeatherDisplay:10.37,2013-03-30 02:03:00,
2013-03-29 21:08:00,35.5,27.0,30.20,South,174,0.0,0.0,71,0.00,FEW,,0.00,0.0,WeatherDisplay:10.37,2013-03-30 02:08:00,
2013-03-29 21:13:00,35.2,26.7,30.19,South,174,0.0,0.0,71,0.00,FEW,,0.00,0.0,WeatherDisplay:10.37,2013-03-30 02:13:00,
2013-03-29 21:18:00,34.9,26.8,30.20,South,174,0.0,0.0,72,0.00,FEW,,0.00,0.0,WeatherDisplay:10.37,2013-03-30 02:18:00,
2013-03-29 21:23:00,34.7,27.6,30.20,South,174,0.0,0.0,75,0.00,FEW,,0.00,0.0,WeatherDisplay:10.37,2013-03-30 02:23:00,
2013-03-29 21:29:00,34.4,27.6,30.20,South,174,0.0,0.0,76,0.00,FEW,,0.00,0.0,WeatherDisplay:10.37,2013-03-30 02:29:00,
2013-03-29 21:34:00,34.2,27.4,30.20,South,174,0.0,0.0,76,0.00,FEW,,0.00,0.0,WeatherDisplay:10.37,2013-03-30 02:34:00,
2013-03-29 21:39:00,33.9,27.4,30.20,South,174,0.0,0.0,77,0.00,FEW,,0.00,0.0,WeatherDisplay:10.37,2013-03-30 02:39:00,
2013-03-29 21:44:00,33.7,27.9,30.20,South,174,0.0,0.0,79,0.00,FEW,,0.00,0.0,WeatherDisplay:10.37,2013-03-30 02:44:00,
2013-03-29 21:49:00,33.4,27.9,30.20,South,174,0.0,0.0,80,0.00,FEW,,0.00,0.0,WeatherDisplay:10.37,2013-03-30 02:49:00,
2013-03-29 21:54:00,33.1,27.9,30.20,South,174,0.0,0.0,81,0.00,FEW,,0.00,0.0,WeatherDisplay:10.37,2013-03-30 02:54:00,
2013-03-29 21:59:00,32.9,27.4,30.19,South,174,0.0,0.0,80,0.00,FEW,,0.00,0.0,WeatherDisplay:10.37,2013-03-30 02:59:00,
2013-03-29 22:04:00,32.6,27.7,30.19,South,174,0.0,0.0,82,0.00,FEW,,0.00,0.0,WeatherDisplay:10.37,2013-03-30 03:04:00,
2013-03-29 22:09:00,32.5,27.6,30.19,South,174,0.0,0.0,82,0.00,FEW,,0.00,0.0,WeatherDisplay:10.37,2013-03-30 03:09:00,
2013-03-29 22:14:00,32.3,27.7,30.19,South,174,0.0,0.0,83,0.00,FEW,,0.00,0.0,WeatherDisplay:10.37,2013-03-30 03:14:00,
2013-03-29 22:19:00,32.1,27.5,30.19,South,174,0.0,0.0,83,0.00,CLR,,0.00,0.0,WeatherDisplay:10.37,2013-03-30 03:19:00,
2013-03-29 22:24:00,32.0,27.7,30.19,South,174,0.0,0.0,84,0.00,CLR,,0.00,0.0,WeatherDisplay:10.37,2013-03-30 03:24:00,
2013-03-29 22:29:00,31.9,27.0,30.19,South,174,0.0,0.0,82,0.00,CLR,,0.00,0.0,WeatherDisplay:10.37,2013-03-30 03:29:00,
2013-03-29 22:34:00,31.7,26.8,30.19,South,174,0.0,0.0,82,0.00,CLR,,0.00,0.0,WeatherDisplay:10.37,2013-03-30 03:34:00,
2013-03-29 22:39:00,31.7,26.8,30.19,South,174,0.0,0.0,82,0.00,CLR,,0.00,0.0,WeatherDisplay:10.37,2013-03-30 03:39:00,
2013-03-29 22:44:00,31.6,27.0,30.18,South,174,0.0,0.0,83,0.00,CLR,,0.00,0.0,WeatherDisplay:10.37,2013-03-30 03:44:00,
2013-03-29 22:49:00,31.5,27.2,30.18,South,174,0.0,0.0,84,0.00,CLR,,0.00,0.0,WeatherDisplay:10.37,2013-03-30 03:49:00,
2013-03-29 22:54:00,31.5,26.9,30.18,South,174,0.0,0.0,83,0.00,CLR,,0.00,0.0,WeatherDisplay:10.37,2013-03-30 03:54:00,
2013-03-29 22:59:00,31.4,27.1,30.18,South,174,0.0,0.0,84,0.00,CLR,,0.00,0.0,WeatherDisplay:10.37,2013-03-30 03:59:00,
2013-03-29 23:00:00,31.4,27.1,30.18,South,174,0.0,0.0,84,0.00,CLR,,0.00,0.0,WeatherDisplay:10.37,2013-03-30 04:00:00,
2013-03-29 23:02:00,31.4,27.1,30.18,South,174,0.0,0.0,84,0.00,BKN,,0.00,0.0,WeatherDisplay:10.37,2013-03-30 04:02:00,
2013-03-29 23:07:00,31.4,27.4,30.18,South,174,0.0,0.0,85,0.00,BKN,,0.00,0.0,WeatherDisplay:10.37,2013-03-30 04:07:00,
2013-03-29 23:12:00,31.4,27.4,30.18,South,174,0.0,0.0,85,0.00,BKN,,0.00,0.0,WeatherDisplay:10.37,2013-03-30 04:12:00,
2013-03-29 23:17:00,31.4,27.4,30.18,South,174,0.0,0.0,85,0.00,BKN,,0.00,0.0,WeatherDisplay:10.37,2013-03-30 04:17:00,
2013-03-29 23:22:00,31.4,27.4,30.17,South,174,0.0,0.0,85,0.00,BKN,,0.00,0.0,WeatherDisplay:10.37,2013-03-30 04:22:00,
2013-03-29 23:27:00,31.5,27.5,30.17,South,174,0.0,0.0,85,0.00,BKN,,0.00,0.0,WeatherDisplay:10.37,2013-03-30 04:27:00,
2013-03-29 23:32:00,31.5,27.5,30.17,South,174,0.0,0.0,85,0.00,BKN,,0.00,0.0,WeatherDisplay:10.37,2013-03-30 04:32:00,
2013-03-29 23:37:00,31.6,27.9,30.17,South,174,0.0,0.0,86,0.00,BKN,,0.00,0.0,WeatherDisplay:10.37,2013-03-30 04:37:00,
2013-03-29 23:43:00,31.7,28.0,30.17,South,174,0.0,0.0,86,0.00,BKN,,0.00,0.0,WeatherDisplay:10.37,2013-03-30 04:43:00,
2013-03-29 23:48:00,31.7,27.7,30.17,South,174,0.0,0.0,85,0.00,BKN,,0.00,0.0,WeatherDisplay:10.37,2013-03-30 04:48:00,
2013-03-29 23:53:00,31.8,27.5,30.17,South,174,0.0,0.0,84,0.00,BKN,,0.00,0.0,WeatherDisplay:10.37,2013-03-30 04:53:00,
2013-03-29 23:58:00,31.9,27.9,30.16,South,174,0.0,0.0,85,0.00,BKN,,0.00,0.0,WeatherDisplay:10.37,2013-03-30 04:58:00,